Temp
-8 -8 -7 -8 -8 -7 -7 -7 -7 -7 -7 -7 -7 -7 -8 -8 -8 -8 -8 -9 -9 -9 -9 -9 -9 -10 -10 -10 -10 -10 -10 -11 -11 -11 -11 -11 -11 -11 -11 -11 -11 -11 -11 -11 -11
-8 -8 -8 -8 -7 -7 -7 -7 -7 -8 -8 -8 -8 -8 -8 -8 -8 -9 -9 -9 -9 -9 -9 -9 -10 -10 -10 -10 -11 -11 -11 -11 -11 -11 -11 -11 -11 -11 -11 -11 -11 -11 -11 -11 -11
-8 -8 -8 -8 -8 -7 -7 -8 -7 -8 -8 -8 -8 -8 -9 -9 -8 -9 -9 -9 -9 -9 -9 -10 -10 -10 -10 -10 -10 -11 -11 -11 -11 -11 -11 -11 -11 -11 -11 -11 -11 -11 -11 -11 -12
-8 -8 -8 -8 -8 -8 -8 -8 -8 -8 -8 -8 -8 -8 -8 -8 -8 -8 -9 -9 -9 -9 -9 -9 -10 -10 -10 -10 -10 -10 -11 -11 -11 -11 -11 -11 -11 -11 -11 -11 -11 -11 -11 -11 -11
-8 -8 -8 -8 -8 -8 -8 -8 -8 -8 -8 -8 -8 -8 -8 -8 -8 -8 -8 -9 -9 -9 -9 -9 -10 -10 -10 -10 -10 -10 -11 -11 -11 -11 -11 -11 -11 -11 -10 -10 -11 -11 -11 -12 -12
-8 -8 -8 -8 -8 -8 -8 -8 -8 -8 -8 -8 -8 -8 -8 -8 -8 -8 -8 -8 -9 -9 -9 -9 -10 -10 -10 -10 -10 -10 -11 -11 -11 -11 -11 -11 -11 -11 -11 -11 -11 -12 -12 -12 -12
-8 -8 -8 -8 -8 -8 -8 -8 -8 -8 -8 -8 -8 -8 -8 -8 -8 -8 -8 -8 -8 -8 -8 -9 -9 -9 -10 -10 -10 -10 -10 -10 -10 -11 -11 -11 -11 -11 -11 -11 -12 -12 -12 -12 -12
-8 -8 -8 -8 -8 -8 -8 -8 -8 -8 -8 -8 -8 -8 -8 -8 -8 -8 -8 -8 -8 -8 -8 -9 -9 -9 -9 -10 -10 -10 -10 -10 -10 -11 -11 -11 -11 -11 -11 -11 -12 -12 -11 -11 -11
-8 -8 -8 -8 -8 -8 -8 -8 -8 -8 -8 -8 -9 -9 -8 -8 -8 -8 -8 -9 -9 -9 -9 -9 -9 -9 -10 -10 -10 -10 -10 -10 -10 -10 -11 -11 -11 -11 -11 -11 -11 -11 -12 -12 -12
-8 -8 -8 -8 -8 -8 -8 -8 -8 -8 -8 -9 -9 -9 -9 -9 -9 -9 -9 -9 -9 -9 -9 -9 -9 -9 -9 -10 -10 -10 -10 -10 -10 -10 -10 -10 -10 -11 -11 -11 -12 -12 -11 -11 -12
-9 -9 -9 -8 -8 -8 -8 -8 -8 -8 -8 -8 -9 -9 -9 -9 -9 -9 -9 -9 -9 -9 -10 -10 -10 -9 -10 -10 -10 -10 -10 -10 -11 -11 -11 -11 -11 -12 -12 -12 -12 -12 -12 -12 -12
-9 -9 -9 -9 -9 -8 -8 -8 -8 -8 -8 -8 -8 -9 -9 -9 -9 -9 -9 -9 -10 -10 -10 -10 -10 -10 -10 -10 -10 -11 -11 -11 -11 -11 -11 -11 -11 -12 -12 -12 -12 -12 -12 -12 -13
-9 -9 -9 -9 -9 -8 -8 -8 -8 -8 -8 -9 -9 -9 -9 -9 -9 -9 -10 -10 -10 -10 -10 -10 -10 -10 -10 -11 -11 -11 -11 -11 -11 -11 -11 -11 -12 -12 -12 -12 -12 -12 -13 -13 -14
-9 -9 -9 -9 -9 -9 -8 -8 -8 -8 -9 -9 -9 -9 -9 -9 -9 -10 -10 -10 -10 -10 -10 -11 -11 -11 -11 -11 -11 -11 -11 -11 -11 -11 -12 -12 -12 -12 -12 -12 -12 -13 -14 -14 -15
-10 -10 -9 -9 -9 -9 -9 -8 -8 -8 -9 -9 -9 -9 -10 -10 -10 -10 -10 -10 -10 -11 -11 -11 -11 -11 -11 -11 -11 -12 -12 -12 -12 -12 -12 -12 -12 -12 -12 -13 -13 -14 -14 -15 -16
-10 -10 -10 -10 -9 -9 -9 -9 -8 -9 -9 -9 -9 -9 -9 -10 -10 -10 -10 -10 -11 -11 -11 -11 -11 -11 -12 -12 -12 -12 -12 -12 -12 -12 -12 -12 -13 -12 -13 -13 -14 -14 -15 -16 -17
-10 -10 -10 -10 -10 -9 -9 -9 -9 -9 -9 -9 -9 -9 -9 -10 -10 -10 -10 -11 -11 -11 -11 -11 -12 -12 -12 -12 -12 -12 -12 -12 -12 -12 -13 -13 -12 -13 -13 -14 -14 -14 -16 -16 -17
-10 -10 -10 -10 -10 -10 -10 -10 -9 -9 -9 -9 -9 -9 -9 -10 -10 -10 -10 -11 -11 -11 -12 -12 -12 -12 -12 -12 -12 -12 -13 -13 -13 -13 -13 -12 -13 -13 -14 -14 -14 -15 -16 -17 -18
-10 -10 -10 -10 -10 -10 -10 -10 -10 -10 -10 -10 -10 -10 -10 -10 -10 -10 -10 -11 -11 -12 -12 -12 -12 -12 -13 -13 -13 -12 -13 -13 -13 -12 -13 -13 -13 -13 -14 -14 -15 -16 -18 -18 -19
-10 -10 -10 -10 -10 -10 -10 -10 -10 -10 -10 -10 -10 -10 -10 -10 -10 -10 -11 -11 -11 -12 -12 -12 -12 -13 -13 -13 -13 -13 -13 -13 -13 -13 -14 -13 -14 -14 -14 -15 -16 -18 -18 -19 -20
-10 -10 -10 -10 -10 -10 -10 -10 -10 -10 -10 -10 -10 -10 -10 -10 -10 -10 -11 -11 -12 -12 -12 -12 -12 -13 -13 -13 -13 -13 -13 -13 -14 -14 -14 -14 -14 -14 -15 -16 -17 -18 -19 -20 -21
-10 -10 -10 -10 -10 -10 -10 -9 -10 -10 -10 -10 -10 -10 -10 -10 -10 -10 -11 -11 -12 -12 -12 -12 -13 -13 -13 -13 -13 -14 -14 -14 -14 -14 -14 -15 -14 -15 -16 -17 -18 -19 -19 -21 -22
-10 -10 -10 -10 -10 -10 -10 -10 -10 -10 -10 -10 -10 -10 -10 -10 -10 -11 -11 -11 -12 -12 -12 -13 -13 -13 -13 -13 -14 -14 -14 -14 -14 -14 -14 -15 -15 -16 -16 -18 -18 -19 -20 -22 -23
-10 -10 -10 -10 -10 -10 -10 -10 -10 -10 -10 -10 -10 -10 -10 -10 -11 -11 -11 -12 -12 -12 -13 -13 -13 -13 -14 -14 -14 -14 -14 -14 -14 -15 -15 -15 -16 -16 -17 -18 -19 -19 -20 -22 -23
-10 -10 -10 -10 -10 -10 -10 -10 -10 -10 -10 -10 -10 -10 -10 -10 -11 -11 -11 -12 -12 -12 -13 -13 -13 -14 -14 -14 -14 -14 -14 -14 -15 -15 -15 -15 -16 -16 -17 -18 -19 -19 -21 -23 -24
-11 -11 -11 -10 -10 -10 -10 -10 -10 -10 -10 -10 -10 -10 -10 -10 -10 -11 -11 -12 -12 -13 -13 -13 -13 -14 -14 -14 -14 -15 -14 -15 -15 -15 -15 -15 -16 -17 -18 -19 -19 -20 -22 -23 -24
-11 -11 -11 -11 -10 -10 -10 -10 -10 -10 -10 -10 -10 -10 -10 -11 -11 -11 -11 -12 -12 -13 -13 -13 -13 -13 -14 -14 -14 -14 -14 -15 -15 -15 -15 -16 -16 -17 -18 -19 -19 -20 -22 -24 -24
Height
5869 5870 5871 5873 5874 5875 5875 5876 5876 5878 5879 5879 5878 5878 5877 5876 5876 5876 5875 5874 5872 5871 5871 5870 5870 5870 5870 5870 5870 5870 5870 5868 5868 5867 5866 5864 5863 5862 5860 5859 5858 5857 5855 5853 5851
5870 5871 5873 5875 5876 5876 5877 5878 5879 5880 5880 5879 5880 5879 5879 5879 5878 5877 5876 5875 5874 5873 5872 5872 5872 5872 5872 5872 5871 5871 5870 5869 5868 5866 5866 5865 5864 5863 5862 5860 5858 5856 5854 5851 5848
5872 5873 5875 5876 5877 5877 5879 5880 5881 5881 5881 5881 5881 5880 5880 5880 5879 5877 5876 5876 5875 5874 5873 5873 5873 5873 5873 5873 5872 5871 5870 5869 5868 5867 5866 5866 5865 5863 5861 5860 5858 5855 5851 5849 5846
5874 5875 5876 5877 5878 5879 5880 5882 5882 5882 5883 5882 5881 5881 5881 5880 5881 5878 5877 5877 5876 5876 5875 5875 5875 5875 5874 5874 5873 5872 5871 5870 5868 5867 5866 5865 5863 5861 5860 5858 5855 5852 5848 5845 5840
5874 5876 5877 5878 5879 5880 5882 5883 5884 5884 5884 5883 5882 5882 5882 5881 5880 5879 5879 5878 5877 5877 5876 5877 5877 5877 5876 5875 5873 5872 5871 5869 5869 5867 5867 5866 5864 5862 5858 5856 5852 5849 5846 5841 5837
5875 5876 5877 5879 5880 5882 5883 5884 5885 5885 5884 5883 5883 5883 5883 5882 5881 5880 5879 5879 5879 5879 5878 5878 5878 5877 5877 5875 5874 5873 5873 5873 5871 5869 5867 5864 5861 5859 5856 5854 5851 5846 5841 5836 5829
5875 5876 5878 5879 5882 5883 5884 5885 5885 5885 5884 5884 5883 5883 5884 5884 5882 5881 5881 5881 5880 5880 5880 5880 5879 5879 5878 5877 5876 5875 5875 5875 5872 5869 5866 5864 5861 5858 5855 5851 5846 5841 5834 5828 5821
5875 5876 5878 5880 5883 5884 5885 5886 5886 5886 5885 5885 5885 5884 5884 5884 5883 5882 5882 5882 5881 5881 5881 5881 5881 5880 5879 5879 5877 5876 5874 5872 5869 5867 5865 5863 5860 5856 5851 5846 5841 5835 5828 5821 5812
5875 5877 5879 5882 5884 5885 5886 5887 5887 5887 5886 5886 5886 5885 5886 5885 5884 5883 5883 5882 5882 5882 5882 5881 5882 5882 5880 5879 5877 5875 5872 5870 5867 5864 5862 5860 5857 5853 5847 5842 5835 5828 5821 5813 5803
5875 5878 5880 5882 5884 5885 5886 5888 5888 5888 5887 5887 5887 5888 5887 5886 5884 5884 5884 5884 5883 5883 5883 5882 5881 5881 5881 5878 5876 5873 5870 5868 5866 5863 5860 5856 5852 5847 5841 5835 5828 5820 5812 5801 5791
5875 5878 5880 5882 5884 5886 5887 5888 5890 5890 5889 5888 5888 5887 5886 5886 5885 5884 5885 5884 5884 5884 5883 5883 5882 5880 5878 5875 5873 5871 5869 5867 5864 5861 5857 5852 5847 5842 5835 5827 5819 5810 5801 5790 5779
5876 5878 5880 5882 5885 5886 5887 5889 5889 5891 5890 5889 5888 5887 5887 5886 5886 5885 5885 5885 5884 5884 5883 5883 5881 5879 5876 5873 5871 5869 5867 5865 5862 5857 5852 5846 5842 5835 5828 5820 5811 5801 5790 5779 5767
5876 5877 5880 5882 5884 5887 5888 5890 5890 5890 5891 5890 5889 5888 5888 5888 5886 5886 5885 5884 5883 5883 5882 5881 5880 5877 5874 5872 5870 5867 5864 5860 5857 5852 5848 5840 5837 5830 5822 5813 5803 5792 5781 5769 5754
5876 5878 5880 5882 5886 5887 5889 5890 5890 5890 5890 5891 5890 5889 5888 5887 5887 5886 5885 5885 5883 5882 5880 5879 5876 5874 5872 5870 5867 5864 5860 5857 5853 5848 5843 5837 5829 5824 5814 5804 5794 5783 5770 5755 5741
5876 5878 5880 5883 5885 5887 5889 5890 5890 5891 5891 5892 5890 5889 5887 5888 5888 5886 5885 5884 5882 5880 5880 5877 5875 5872 5870 5867 5863 5861 5857 5853 5848 5843 5838 5832 5822 5817 5806 5796 5785 5771 5756 5742 5726
5876 5878 5881 5884 5886 5887 5888 5889 5890 5892 5891 5891 5890 5889 5888 5887 5887 5885 5885 5884 5881 5879 5877 5875 5872 5870 5867 5864 5861 5857 5853 5848 5842 5837 5832 5825 5817 5808 5799 5788 5773 5758 5743 5728 5714
5876 5879 5882 5884 5886 5887 5888 5889 5891 5890 5892 5891 5889 5888 5888 5887 5886 5884 5883 5882 5881 5878 5875 5872 5869 5866 5864 5861 5857 5853 5848 5843 5838 5829 5827 5819 5812 5803 5789 5775 5762 5747 5733 5718 5702
5876 5879 5882 5884 5886 5888 5889 5890 5891 5891 5890 5889 5888 5888 5887 5886 5885 5883 5881 5880 5878 5875 5872 5870 5868 5864 5861 5858 5854 5851 5846 5841 5834 5827 5821 5813 5803 5793 5779 5765 5751 5737 5722 5706 5689
5875 5879 5882 5883 5886 5888 5889 5890 5890 5890 5890 5889 5888 5887 5886 5885 5884 5881 5879 5878 5875 5872 5871 5868 5865 5862 5859 5855 5852 5846 5841 5837 5829 5822 5811 5805 5797 5784 5770 5756 5742 5727 5710 5694 5677
5875 5878 5881 5883 5886 5888 5889 5890 5890 5890 5889 5888 5887 5886 5885 5884 5882 5879 5877 5875 5873 5870 5867 5865 5863 5860 5856 5853 5848 5843 5838 5831 5825 5817 5808 5797 5786 5772 5761 5746 5731 5716 5700 5683 5665
5874 5878 5880 5883 5885 5888 5889 5890 5890 5890 5889 5888 5887 5886 5885 5883 5881 5878 5876 5873 5870 5867 5865 5862 5860 5858 5853 5850 5844 5839 5833 5826 5820 5814 5802 5788 5782 5767 5752 5737 5722 5706 5689 5672 5655
5872 5877 5879 5882 5886 5887 5889 5890 5891 5890 5889 5888 5887 5886 5885 5883 5880 5876 5874 5870 5868 5865 5862 5860 5857 5854 5851 5846 5841 5836 5829 5822 5814 5805 5796 5785 5773 5758 5744 5728 5712 5696 5678 5661 5646
5870 5875 5878 5881 5884 5886 5888 5890 5890 5890 5889 5888 5887 5886 5884 5881 5879 5874 5871 5869 5866 5863 5860 5857 5854 5851 5847 5844 5838 5830 5824 5817 5808 5799 5790 5777 5764 5748 5734 5718 5702 5687 5671 5654 5640
5869 5873 5877 5880 5882 5885 5887 5889 5889 5889 5889 5888 5887 5885 5882 5879 5875 5872 5868 5866 5863 5860 5857 5855 5851 5846 5842 5837 5832 5825 5819 5812 5803 5794 5783 5770 5757 5740 5725 5709 5695 5680 5663 5648 5633
5866 5871 5874 5878 5881 5883 5885 5887 5888 5888 5888 5886 5885 5883 5880 5877 5873 5869 5866 5863 5860 5857 5854 5851 5848 5844 5838 5834 5829 5822 5815 5808 5798 5788 5776 5763 5750 5734 5717 5702 5688 5671 5655 5640 5626
5864 5869 5872 5875 5878 5881 5883 5885 5886 5887 5886 5885 5883 5881 5878 5875 5872 5868 5864 5860 5857 5854 5850 5847 5843 5839 5836 5830 5825 5818 5810 5801 5791 5780 5769 5756 5741 5727 5710 5695 5679 5664 5650 5634 5620
5861 5866 5869 5873 5876 5879 5881 5883 5884 5884 5884 5883 5881 5879 5876 5873 5870 5865 5861 5857 5854 5850 5847 5842 5837 5833 5830 5824 5818 5811 5802 5794 5786 5774 5762 5748 5735 5719 5704 5689 5674 5659 5643 5629 5614
Wind_Speed
18 17 15 14 15 16 15 15 14 13 13 12 12 12 11 11 11 12 12 12 12 12 12 12 13 12 11 11 11 10 8 7 8 7 5 6 7 9 11 14 16 17 17 18 19
17 16 14 13 13 13 12 12 11 11 11 10 11 11 10 10 9 10 10 10 11 12 12 11 11 11 10 10 10 9 8 7 6 5 4 5 7 9 11 11 12 14 16 19 21
16 15 13 12 12 11 9 9 9 10 9 10 9 8 8 6 8 9 9 10 11 11 10 10 11 12 11 11 9 8 8 7 7 9 9 9 9 8 8 11 14 16 18 21 24
14 13 12 11 10 9 7 6 7 7 8 8 7 6 7 8 9 11 10 11 11 10 9 10 11 10 8 9 8 9 9 8 8 8 7 6 7 10 12 14 17 20 23 26 28
13 10 9 9 8 7 6 5 6 5 6 6 6 6 10 11 11 12 11 10 10 10 10 10 11 10 8 7 7 7 7 5 5 6 7 9 13 15 15 15 17 19 23 26 30
12 10 8 7 8 7 5 4 6 4 5 5 8 10 11 11 11 12 11 11 10 10 9 10 10 9 7 5 5 4 6 7 7 7 8 10 12 13 15 18 20 25 30 36 43
12 10 9 8 8 7 5 5 6 5 6 7 8 12 11 9 10 12 11 10 10 10 9 9 8 8 6 3 5 7 8 9 10 11 11 12 12 14 18 23 24 32 40 46 52
12 10 11 9 10 8 7 5 6 6 7 7 7 11 10 8 8 10 10 9 9 7 7 6 6 5 4 4 6 7 9 10 11 13 14 12 15 19 24 30 35 40 45 50 55
11 11 11 11 11 9 8 6 5 6 7 6 10 7 8 7 7 7 5 6 5 4 2 2 3 2 3 5 6 8 10 11 13 17 19 21 25 29 32 35 41 46 52 57 62
13 13 12 13 11 11 8 5 3 7 8 6 7 7 6 7 7 5 4 2 2 1 2 3 4 5 5 6 9 12 14 16 19 21 24 29 32 34 36 41 46 50 56 62 68
14 14 14 13 12 11 7 3 3 6 7 6 5 5 7 7 7 5 4 1 1 1 3 5 7 8 10 10 11 14 17 17 19 23 26 29 32 36 39 43 48 54 61 65 72
16 16 15 15 13 11 7 3 3 3 5 8 6 5 5 6 7 6 5 4 3 4 6 7 9 11 12 15 15 17 19 19 21 25 30 34 35 37 40 47 53 59 65 71 75
17 16 16 15 11 9 6 2 1 2 3 6 6 6 4 5 7 8 7 6 6 6 7 8 9 12 13 14 15 17 20 22 26 30 32 37 36 40 47 52 58 63 68 73 77
18 18 16 14 11 9 7 3 0 1 4 5 5 6 5 4 6 8 8 7 7 8 8 9 11 12 14 16 17 19 22 25 29 32 33 36 43 43 50 56 61 68 72 76 77
19 17 15 12 10 8 6 4 3 2 3 3 5 6 6 6 6 8 9 9 9 11 11 11 12 13 15 16 19 20 24 28 30 31 34 38 45 48 55 60 66 71 75 77 80
20 17 15 13 10 8 7 6 4 4 3 4 5 6 8 7 7 9 10 10 12 13 12 12 12 13 15 17 20 23 26 29 32 35 39 42 48 54 60 66 70 75 77 79 80
20 18 15 12 10 9 7 6 4 3 2 2 4 6 8 8 8 9 11 12 13 14 14 15 16 16 16 17 20 24 28 32 36 41 42 46 51 58 65 68 73 77 78 79 80
20 19 15 11 9 8 7 5 3 3 2 2 3 4 6 8 8 9 11 13 15 17 17 17 16 16 15 18 21 23 27 31 36 42 45 49 56 61 66 72 76 79 79 79 81
21 19 15 12 8 6 6 5 5 4 4 5 5 5 6 8 10 11 13 14 16 18 18 17 16 15 16 19 23 26 31 34 40 43 50 55 58 66 69 74 78 76 76 78 79
20 18 15 12 9 7 6 6 4 5 6 8 9 9 8 9 11 12 14 15 17 18 17 17 16 15 18 20 23 28 32 38 40 46 51 57 63 69 73 76 74 74 75 79 76
21 18 16 13 10 7 6 6 5 4 7 9 11 10 11 12 14 14 15 16 17 17 17 17 17 18 21 23 27 30 34 37 42 46 52 60 66 71 74 76 73 74 77 77 70
22 20 17 14 11 8 6 4 5 4 6 9 11 12 14 16 17 17 16 17 18 17 17 16 18 21 23 26 28 31 34 39 45 50 53 61 69 73 75 74 73 75 75 72 67
25 22 19 16 13 10 7 3 3 4 6 8 10 12 16 19 20 19 18 19 18 17 17 17 21 24 24 26 27 32 37 42 47 50 56 64 70 74 74 72 74 74 72 69 66
28 24 20 17 13 11 8 4 0 3 3 6 9 13 18 21 25 20 18 18 18 17 18 20 23 25 28 29 31 36 39 43 47 51 59 65 70 75 75 72 72 73 73 68 66
31 26 22 19 16 12 9 6 2 3 5 8 10 14 19 24 26 23 19 18 19 19 21 23 24 24 28 28 30 37 39 42 49 53 60 67 72 75 74 72 73 73 71 68 65
31 27 23 21 18 14 11 7 5 5 7 9 12 16 19 23 27 23 23 21 20 21 22 26 26 26 27 29 31 35 40 45 51 55 63 70 75 76 73 71 73 72 68 65 66
32 28 26 22 19 16 12 9 7 8 9 10 13 17 20 23 28 26 26 24 22 22 24 27 30 31 31 34 36 39 44 48 52 58 66 71 75 76 72 71 72 70 67 64 65
Wind_Direction
131 129 123 115 108 109 110 105 101 98 95 86 72 61 50 44 38 40 42 47 50 55 62 68 72 72 71 69 62 59 51 56 56 52 48 29 11 359 353 355 358 356 349 342 335
134 128 123 120 116 112 107 105 105 97 87 74 61 48 39 36 34 44 47 45 48 51 51 56 63 58 41 45 49 51 51 60 78 77 49 28 22 17 11 0 350 342 335 330 326
142 136 133 130 120 118 115 113 103 87 81 64 51 37 37 49 52 62 56 52 51 47 47 50 50 43 37 37 46 61 62 54 51 59 55 50 40 21 5 347 342 335 326 324 325
156 147 143 131 125 131 134 120 102 80 65 56 50 39 67 80 80 77 69 68 64 58 48 47 50 51 37 46 48 58 65 58 65 52 43 33 15 5 358 351 346 342 339 334 328
161 155 154 139 139 146 134 124 93 77 54 39 51 61 82 82 85 81 78 77 73 67 58 56 59 65 63 56 64 70 72 67 27 20 11 359 5 357 357 342 325 325 321 316 314
171 172 168 160 163 152 138 119 98 66 44 55 81 86 90 90 92 92 91 86 80 73 69 76 79 80 81 74 70 53 33 19 2 356 341 338 339 339 333 323 321 320 321 322 321
179 177 179 172 165 164 143 121 87 57 44 83 97 92 88 96 99 103 94 88 86 81 79 83 94 97 88 72 40 16 6 353 340 332 333 328 326 332 321 321 316 323 325 322 321
185 182 182 175 170 165 141 110 76 54 63 83 91 89 89 84 99 113 107 95 84 84 80 90 90 76 75 32 11 355 347 335 329 327 329 325 320 320 319 322 323 320 318 314 313
189 186 183 174 174 157 135 100 63 53 55 75 78 93 82 67 79 88 105 101 89 71 74 89 85 42 13 1 348 330 332 329 324 327 326 326 323 327 321 318 315 314 314 313 311
191 187 180 176 166 148 130 105 56 45 44 62 83 90 71 60 63 74 86 108 89 52 351 320 349 346 347 331 331 334 337 337 336 331 329 325 323 323 320 317 316 316 313 311 312
186 184 182 168 155 146 136 120 58 48 42 70 74 81 58 56 55 60 50 5 312 308 314 318 325 329 334 328 334 334 338 340 334 331 327 323 323 326 322 318 315 314 315 316 317
177 174 173 160 152 141 129 124 84 37 39 61 59 61 59 54 49 51 44 30 9 332 316 316 322 331 329 331 332 330 325 324 329 329 327 324 326 324 320 317 319 320 319 319 319
169 159 160 157 150 140 133 132 54 39 43 49 45 43 52 60 46 40 39 33 1 342 332 329 330 331 329 324 321 320 320 327 327 327 327 323 322 323 320 324 323 322 320 320 319
163 155 151 146 148 145 145 141 117 34 71 41 33 37 44 57 45 36 28 24 6 347 345 339 334 325 322 321 322 325 328 326 326 324 326 323 320 326 325 325 324 324 324 324 323
162 152 145 148 156 155 162 169 178 150 93 43 35 38 50 51 24 16 18 12 1 348 335 326 324 326 325 327 328 325 323 323 325 324 324 326 326 329 328 327 326 327 326 325 323
161 153 143 139 143 148 161 162 162 163 93 48 26 23 28 31 19 10 2 357 356 347 341 334 324 323 325 325 321 324 325 324 324 324 329 330 330 328 329 329 329 329 328 326 326
164 156 148 142 136 136 136 138 131 149 160 34 16 10 11 9 4 359 353 348 339 342 344 344 339 331 326 323 326 327 328 323 326 330 331 330 329 331 331 332 332 330 328 327 328
168 163 155 144 141 131 128 127 115 107 79 13 358 4 7 1 353 345 337 336 338 338 338 340 338 332 329 326 326 326 324 327 328 328 327 330 334 334 334 335 333 331 330 330 329
172 166 162 152 147 131 117 110 92 78 49 26 12 1 354 352 345 338 332 331 331 334 336 338 333 334 329 327 326 326 326 329 327 329 330 334 334 335 335 334 334 333 332 331 332
180 177 172 163 152 134 104 90 84 64 43 29 19 10 1 355 345 337 332 331 330 332 332 334 333 329 327 327 325 323 328 330 332 334 331 332 335 336 337 336 335 334 333 334 333
188 187 182 172 161 146 116 80 74 63 42 32 21 15 10 359 349 338 333 331 330 333 332 332 332 329 330 329 326 326 332 333 332 333 335 333 336 337 338 336 334 335 337 336 332
190 188 184 181 172 165 147 117 87 72 44 35 27 20 11 359 350 344 336 332 333 334 332 333 332 329 331 328 326 331 333 333 334 334 336 335 335 337 339 336 336 339 338 335 333
191 188 184 181 183 177 169 151 85 74 58 40 25 20 10 358 354 347 341 335 336 333 331 335 335 331 329 328 333 333 335 332 332 333 335 338 337 339 338 338 339 339 338 335 334
194 190 189 186 186 190 190 193 164 31 30 13 8 6 6 2 356 348 343 335 333 331 331 336 336 334 333 334 334 331 331 331 333 333 336 338 339 339 339 340 340 339 338 337 336
196 192 191 192 195 196 199 206 261 332 349 350 350 356 3 5 2 357 345 335 331 329 329 332 336 334 331 333 333 329 329 332 336 335 339 338 340 340 340 340 341 341 339 339 337
200 197 195 197 199 200 205 219 259 300 326 340 346 349 354 1 358 357 348 336 330 326 329 331 334 335 334 332 332 331 331 336 337 338 338 340 340 341 340 341 342 340 340 340 338
200 200 201 200 201 204 211 228 254 287 309 329 343 347 349 352 356 352 348 338 332 327 331 332 332 335 337 337 339 336 337 335 338 339 339 340 341 341 341 342 342 341 341 340 338